Regional Weather Roundup
Issued by NWS

Home | Current Version | Previous Version | Text Only | Print | Product List | Glossary Off
Versions: 1 2 3 4 5 6 7 8 9 10 11 12 13 14 15 16 17 18 19 20 21 22 23 24 25 26 27 28 29 30 31 32 33 34 35 36 37 38 39 40 41 42 43 44 45 46 47 48 49 50

098
ASUS43 KMKX 231500
RWRWI

WISCONSIN REGIONAL WEATHER ROUNDUP
NATIONAL WEATHER SERVICE MILWAUKEE/SULLIVAN WI
1000 AM CDT SAT SEP 23 2017

NOTE: "FAIR" INDICATES FEW OR NO CLOUDS BELOW 12,000 FEET WITH NO
SIGNIFICANT WEATHER AND/OR OBSTRUCTIONS TO VISIBILITY.

WIZ001-002-006>008-014>016-023>028-231600-
NORTHWEST WISCONSIN

CITY           SKY/WX    TMP DP  RH WIND       PRES   REMARKS
SUPERIOR ARPT  MOSUNNY   73  69  88 W5        29.94R
ASHLAND        SUNNY     81  69  67 SW13      29.96R HX  84
HAYWARD        SUNNY     78  68  71 S12       29.99R HX  80
SIREN          SUNNY     78  67  69 SW9       29.96S HX  80
CUMBERLAND     PTSUNNY   73  64  73 SW9       30.00R
RICE LAKE      PTSUNNY   77  67  71 S10       30.01S
CHETEK         CLOUDY    75  69  82 CALM      30.01R
LADYSMITH      PTSUNNY   77  68  72 S10       30.03S
EAU CLAIRE     NOT AVBL
MENOMONIE      MOSUNNY   77  68  73 S5        30.00S
NEW RICHMOND   CLOUDY    78  66  66 SW10      29.99S HX  80
OSCEOLA        MOSUNNY   78  68  70 S10       30.00S HX  80
$$

WIZ003>005-009-010-017-018-231600-
NORTH CENTRAL WISCONSIN

CITY           SKY/WX    TMP DP  RH WIND       PRES   REMARKS
MANITOWISH WTR SUNNY     75  72  88 S9        30.03
ARBOR VITAE    SUNNY     77  69  76 SW10      30.03S
WOODRUFF       SUNNY     77  69  76 SW10      30.03S
RHINELANDER    SUNNY     77  68  73 S14G20    30.06S
EAGLE RIVER    SUNNY     76  65  68 SW7       30.04S
LAND O LAKES   SUNNY     76  66  70 SW8G18    30.05R
PHILLIPS       SUNNY     75  69  79 SW10      30.02S
TOMAHAWK       SUNNY     75  66  72 CALM      30.06S
MEDFORD        SUNNY     76  66  72 S10       30.06R
MERRILL        SUNNY     78  67  71 SW10      30.06S
$$

WIZ029-030-035-036-043>047-231600-
CENTRAL WISCONSIN

CITY           SKY/WX    TMP DP  RH WIND       PRES   REMARKS
WAUSAU         SUNNY     77  66  68 S8        30.05S
MOSINEE        SUNNY     79  68  69 SW9       30.08R HX  81
MARSHFIELD     SUNNY     79  66  64 SW12G18   30.06S HX  81
STEVENS POINT  SUNNY     77  65  68 SW5       30.08R
WAUPACA        SUNNY     79  68  69 SW6       30.08S HX  81
WAUTOMA        SUNNY     78  67  68 S5        30.08  HX  80
WISC RAPIDS    SUNNY     82  68  62 SW7       30.08R HX  85
CAMP DOUGLAS   NOT AVBL
$$

WIZ011>013-019>022-031-037>040-048>050-231600-
NORTHEAST WISCONSIN

CITY           SKY/WX    TMP DP  RH WIND       PRES   REMARKS
ANTIGO         SUNNY     76  67  72 SW9       30.08S
SHAWANO        SUNNY     79  67  67 SW5       30.06R HX  81
OCONTO         SUNNY     79  67  66 SW6       30.05R HX  82
STURGEON BAY   SUNNY     83  67  58 SW10      30.07R HX  85
GREEN BAY      SUNNY     81  69  67 SW7       30.06S HX  84
MANITOWOC      SUNNY     82  70  66 VRB3      30.09R HX  86
APPLETON       MOSUNNY   81  63  54 SW8       30.07R HX  82
CLINTONVILLE   SUNNY     79  64  61 SW7       30.06S HX  81
OSHKOSH        SUNNY     80  68  66 SW6       30.08R HX  83
$$

WIZ032>034-041-042-053>061-231600-
SOUTHWEST WISCONSIN

CITY           SKY/WX    TMP DP  RH WIND       PRES   REMARKS
LA CROSSE      SUNNY     82  67  60 S9        30.04R HX  84
SPARTA         SUNNY     78  66  66 SW3       30.07R HX  80
VIROQUA        SUNNY     78  67  69 S7        30.09R HX  80
BOSCOBEL       SUNNY     82  67  60 CALM      30.07R HX  84
PRAIRIE DU CHI SUNNY     77  63  60 CALM      30.06R
PLATTEVILLE    SUNNY     78  68  70 SE6       30.09R HX  81
$$

WIZ056-057-062-063-064-067-068-231600-
SOUTH CENTRAL WISCONSIN

CITY           SKY/WX    TMP DP  RH WIND       PRES   REMARKS
REEDSBURG      SUNNY     79  66  64 S5        30.07S HX  81
BARABOO/DELLS  SUNNY     80  64  59 S7        30.08R HX  81
LONE ROCK      NOT AVBL
MINERAL POINT  SUNNY     79  68  69 S5        30.09S HX  81
MADISON        MOSUNNY   79  66  64 S6        30.09R HX  81
MIDDLETON      SUNNY     82  65  56 S6        30.10R HX  83
WATERTOWN      SUNNY     78  67  69 SW6       30.10R HX  81
MONROE         NOT AVBL
JANESVILLE     SUNNY     82  64  54 CALM      30.10R HX  84
$$

WIZ051-052-058>065-066-070>072-231600-
SOUTHEAST WISCONSIN

CITY           SKY/WX    TMP DP  RH WIND       PRES   REMARKS
MILWAUKEE      MOSUNNY   85  67  54 SW5       30.10R HX  87
WAUKESHA       SUNNY     81  64  57 SW6       30.12R HX  82
MILWAUKEE/TIMM SUNNY     82  61  47 S6        30.10R HX  83
RACINE         SUNNY     85  69  58 SE6       30.12R HX  89
BURLINGTON     SUNNY     82  68  63 SW7       30.10S HX  84
KENOSHA        SUNNY     85  67  54 SW7       30.11R HX  87
FOND DU LAC    SUNNY     81  64  56 SW7       30.09R HX  82
SHEBOYGAN      SUNNY     83  69  62 SW6       30.09R HX  86
WEST BEND        N/A     82  64  54 SW6       30.09S HX  84
JUNEAU         SUNNY     76  67  73 SW5       30.11R
$$

LSZ147-162-231600-
LAKE SUPERIOR

STATION/POSITION TIME  TEMP    WIND        PRES    WAVE
                       AIR SEA DIR/SP/G            HT/PER
                 (UTC) (F)     (DEG/KT/KT) (MB)    (FT/S)
W MID LAKE BUOY  1350   64 55  210/ 12/ 14 1012.0R   1/ 4
DEVILS ISLAND    1400   73     190/  6/  8 1012.7R
SAXON HARBOR     1440   80     200/  6/ 11 1013.5R
$$

LMZ867-665-643>646-231600-
LAKE MICHIGAN

STATION/POSITION TIME  TEMP    WIND        PRES    WAVE
                       AIR SEA DIR/SP/G            HT/PER
                 (UTC) (F)     (DEG/KT/KT) (MB)    (FT/S)
S GREEN BAY BUOY 1430   70 67  200/  6/  6 1017.4R
N MID LAKE BUOY  1350   68 66  190/ 12/ 14 1017.8R   2/ 4
NORTHPORT PIER   1440   81     210/  4/  9 1017.3R
KEWAUNEE LAKESHO 1424   67     120/  3/  5 1017.3
SHEBOYGAN LAKESH 1400   72     170/ 10/ 11 1018.0R
PORT WASHINGTON  1430   75     180/  3/  5 1019.6S
ATWATER BUOY     1309   71 67  150/  8/  8 1019.0R
MILWAUKEE LAKESH 1430   76     170/  1/  3   N/A
S MID LAKE BUOY  1350   72 70  130/  8/  8 1019.4R   0
KENOSHA   LAKESH 1400   73     170/  9/ 10 1018.6
$$

TC  - TEMPERATURE IN CELSIUS
VSB - VISIBILITY IN STATUTE MILES
WCI - WIND CHILL INDEX
HX  - HEAT INDEX





USA.gov is the U.S. government's official web portal to all federal, state and local government web resources and services.